Current Weather Conditions: station 62302

sailwx.info

Wind from 200

Wave height 2.4 meters (7 feet), 7 second period

Air temperature 7.1° C
Dewpoint 6.9° C

Last reported at 2018-May-25 00:00 UTC.
Time now 2018-May-25 01:31 UTC

Location: N 60°42' W 002°24'.
View on Google Maps.

See reports from other nearby stations

  
Tides and Currents Weather Stations Pressure Air Temp Water Temp Dewpoint Dewpoint Depression Visibility Wind Speed Wind Dir Waves Ship Positions
date/time (UTC)wind fromknots sea level pressurealtimeterstation pressurevisibilityair tempwater tempwave heightnotes
2018-May-25 00:00 200 7.1 2.4
2018-May-24 23:00 200 0.1 7.1 2.7
2018-May-24 22:00 200 0.5 7.1 2.6
2018-May-24 21:00 200 0.5 7.1 2.5
2018-May-24 20:00 180 0.3 7.1 2.6
2018-May-24 19:00 180 0.5 7.3 2.5
2018-May-24 18:00 180 1.1 7.2 2.8
2018-May-24 17:00 170 1.1 7.2 2.8
2018-May-24 16:00 180 1.1 7.2 2.6
2018-May-24 15:00 180 1.1 7.2 2.8
2018-May-24 14:00 180 0.5 7.5 3.0
2018-May-24 13:00 170 1.1 7.4 3.0
2018-May-24 12:00 170 1.1 7.2 3.1
2018-May-24 11:00 170 1.1 7.2 3.0
2018-May-24 10:00 170 2.2 7.2 3.0
2018-May-24 09:00 170 5.4 6.8 2.8
2018-May-24 08:00 170 2.2 6.8 2.7
2018-May-24 07:00 170 5.4 6.8 2.6
2018-May-24 06:00 180 5.4 6.6 2.5
2018-May-24 05:00 180 10.8 6.8 2.4
2018-May-24 04:00 180 10.8 7.0 2.5
2018-May-24 03:00 190 10.8 7.3 2.6
2018-May-24 02:00 180 10.8 7.4 2.3
2018-May-24 01:00 180 10.8 7.6 2.5
2018-May-24 00:00 170 10.8 7.9 2.9
2018-May-23 23:00 180 10.8 8.0 2.7
2018-May-23 22:00 180 10.8 8.1 2.7
2018-May-23 21:00 170 10.8 8.2 2.3
2018-May-23 20:00 170 10.8 8.2 2.5
2018-May-23 19:00 180 10.8 8.3 2.1
2018-May-23 18:00 180 10.8 8.4 1.9
2018-May-23 17:00 190 10.8 8.6 1.8
2018-May-23 16:00 190 10.8 8.6 1.6
2018-May-23 15:00 180 10.8 8.5 1.6
2018-May-23 14:00 170 10.8 8.6 1.4
2018-May-23 13:00 180 10.8 8.5 1.5
2018-May-23 12:00 180 10.8 8.7 1.4
2018-May-23 11:00 170 10.8 8.7 1.2
2018-May-23 10:00 170 10.8 8.8 1.3
2018-May-23 09:00 160 10.8 8.9 1.2
2018-May-23 08:00 150 10.8 8.2 1.3
2018-May-23 07:00 150 10.8 8.0 1.3
2018-May-23 06:00 130 10.8 8.0 1.4
2018-May-23 05:00 120 10.8 7.9 1.4
2018-May-23 04:00 120 10.8 7.7 1.4
2018-May-23 03:00 100 10.8 7.8 1.4
2018-May-23 02:00 090 10.8 7.8 1.5
2018-May-23 01:00 090 10.8 7.8 1.5